Location: Molalla
(45.1473°N, 122.5770°W)
Time: 21:53:17
(UTC-08:00)

Altair - All Passes

Search period start: 17 November 2019 00:00
Search period end: 27 November 2019 00:00
Orbit: 1502 x 1682 km, 47.2° (Epoch: 17 November)

Date Brightness Start Highest point End Pass type
(mag) Time Alt. Az. Time Alt. Az. Time Alt. Az.
17 Nov - 02:39:25 10° SSW 02:47:47 41° SE 02:56:10 10° ENE visible
17 Nov - 04:42:36 10° WSW 04:51:48 87° SSE 05:01:09 10° ENE visible
17 Nov - 06:47:35 10° W 06:56:50 79° N 07:06:20 10° E daylight
17 Nov - 08:52:24 10° WNW 09:01:37 70° SSW 09:11:10 10° SE daylight
17 Nov - 10:57:45 10° W 11:05:15 28° SW 11:12:58 10° S daylight
18 Nov - 02:14:30 10° SSW 02:22:43 38° SE 02:30:57 10° ENE visible
18 Nov - 04:17:28 10° WSW 04:26:39 84° SSE 04:35:59 10° ENE visible
18 Nov - 06:22:24 10° W 06:31:38 79° N 06:41:07 10° E visible
18 Nov - 08:27:15 10° WNW 08:36:28 73° SSW 08:46:02 10° SE daylight
18 Nov - 10:32:27 10° WNW 10:40:12 30° SW 10:48:09 10° S daylight
19 Nov - 01:49:38 10° SSW 01:57:40 35° SE 02:05:42 10° ENE visible
19 Nov - 03:52:19 10° WSW 04:01:30 81° SSE 04:10:47 10° ENE visible
19 Nov - 05:57:13 10° W 06:06:26 79° N 06:15:53 10° E visible
19 Nov - 08:02:06 10° WNW 08:11:20 77° SSW 08:20:52 10° ESE daylight
19 Nov - 10:07:12 10° WNW 10:15:08 33° SW 10:23:20 10° SSE daylight
20 Nov - 01:24:47 10° SSW 01:32:38 33° SE 01:40:26 10° ENE visible
20 Nov - 03:27:12 10° WSW 03:36:22 78° SSE 03:45:36 10° ENE visible
20 Nov - 05:32:01 10° W 05:41:14 79° N 05:50:39 10° E visible
20 Nov - 07:36:56 10° WNW 07:46:11 80° SSW 07:55:42 10° ESE daylight
20 Nov - 09:41:56 10° WNW 09:50:04 35° SW 09:58:27 10° SSE daylight
21 Nov - 00:59:58 10° S 01:07:35 30° SE 01:15:09 10° ENE visible
21 Nov - 03:02:05 10° WSW 03:11:14 75° SSE 03:20:25 10° ENE visible
21 Nov - 05:06:50 10° W 05:16:03 79° N 05:25:26 10° E visible
21 Nov - 07:11:47 10° WNW 07:21:01 83° SSW 07:30:32 10° ESE daylight
21 Nov - 09:16:43 10° WNW 09:25:00 38° SW 09:33:32 10° SSE daylight
22 Nov - 00:35:11 10° S 00:42:33 28° SE 00:49:52 10° E visible
22 Nov - 02:36:58 10° SW 02:46:06 71° SSE 02:55:15 10° ENE visible
22 Nov - 04:41:39 10° W 04:50:52 79° N 05:00:13 10° E visible
22 Nov - 06:46:37 10° WNW 06:55:52 85° SSW 07:05:21 10° ESE visible
22 Nov - 08:51:30 10° WNW 08:59:55 41° SW 09:08:36 10° SSE daylight
23 Nov - 00:10:27 10° S 00:17:32 25° SE 00:24:33 10° E visible
23 Nov - 02:11:52 10° SW 02:20:59 68° SSE 02:30:04 10° ENE visible
23 Nov - 04:16:27 10° W 04:25:40 80° N 04:35:00 10° E visible
23 Nov - 06:21:28 10° WNW 06:30:42 88° SSW 06:40:09 10° ESE visible
23 Nov - 08:26:18 10° WNW 08:34:51 44° SW 08:43:38 10° SSE daylight
23 Nov - 10:35:03 10° WSW 10:37:41 11° WSW 10:40:19 10° SW daylight
23 Nov - 23:45:46 10° S 23:52:31 23° SE 23:59:11 10° E night (unlit)
24 Nov - 01:46:47 10° SW 01:55:52 64° SSE 02:04:54 10° ENE visible
24 Nov - 03:51:15 10° W 04:00:29 81° N 04:09:48 10° E visible
24 Nov - 05:56:18 10° WNW 06:05:32 90° NNE 06:14:58 10° ESE visible
24 Nov - 08:01:07 10° WNW 08:09:46 47° SW 08:18:39 10° SSE daylight
24 Nov - 10:08:52 10° W 10:12:41 13° WSW 10:16:32 10° SSW daylight
24 Nov - 23:21:08 10° S 23:27:29 21° SE 23:33:47 10° E night (unlit)
25 Nov - 01:21:43 10° SW 01:30:45 61° SSE 01:39:43 10° ENE visible
25 Nov - 03:26:05 10° W 03:35:18 82° N 03:44:36 10° E visible
25 Nov - 05:31:07 10° WNW 05:40:21 87° NNE 05:49:46 10° ESE visible
25 Nov - 07:35:56 10° WNW 07:44:41 50° SW 07:53:39 10° SE daylight
25 Nov - 09:43:03 10° W 09:47:40 15° SW 09:52:23 10° SSW daylight
25 Nov - 22:56:35 10° SSE 23:02:29 19° SE 23:08:20 10° E night (unlit)
26 Nov - 00:56:40 10° SW 01:05:39 57° SE 01:14:33 10° ENE visible
26 Nov - 03:00:53 10° W 03:10:07 83° N 03:19:24 10° ENE visible
26 Nov - 05:05:58 10° WNW 05:15:12 85° NNE 05:24:34 10° ESE visible
26 Nov - 07:10:45 10° WNW 07:19:35 53° SW 07:28:37 10° SE daylight
26 Nov - 09:17:24 10° W 09:22:40 17° SW 09:28:03 10° SSW daylight
26 Nov - 22:32:06 10° SSE 22:37:29 17° SE 22:42:48 10° E night (unlit)
